Regional Weather Roundup
Issued by NWS Newport/Morehead, NC

Current Version | Previous Version | Text Only | Print | Product List | Glossary On
Versions: 1 2 3 4 5 6 7 8 9 10 11 12 13 14 15 16 17 18 19 20 21 22 23 24 25 26 27 28 29 30 31 32 33 34 35 36 37 38 39 40 41 42 43 44 45 46 47 48 49 50
942
ASUS42 KMHX 082112
RWRMHX
WEATHER ROUNDUP FOR EASTERN NORTH CAROLINA
NATIONAL WEATHER SERVICE NEWPORT/MOREHEAD CITY NC
400 PM EST THU DEC 08 2016

NOTE: "FAIR" INDICATES FEW OR NO CLOUDS BELOW 12,000 FEET
WITH NO SIGNIFICANT WEATHER AND/OR OBSTRUCTIONS TO VISIBILITY

NCZ015>017-031-032-045>047-102-103-082200-
NORTH COAST

CITY           SKY/WX    TMP DP  RH WIND       PRES   REMARKS
EDENTON        CLOUDY    52  39  61 NW6       30.04S
ELIZABETH CITY CLOUDY    50  37  61 NW10      30.03R
KITTY HAWK     NOT AVBL
MANTEO         CLOUDY    51  43  74 NW10G17   30.02R

$$

NCZ045>047-081-094-103-104-082200-
CENTRAL COAST

CITY           SKY/WX    TMP DP  RH WIND       PRES   REMARKS
FRISCO         NOT AVBL

$$

NCZ095-097-098-100-101-082200-
SOUTHERN COAST

CITY           SKY/WX    TMP DP  RH WIND       PRES   REMARKS
BEAUFORT       CLEAR     56  46  69 MISG      30.05R
CEDAR ISLAND   NOT AVBL
JACKSONVILLE   CLEAR     56  34  43 N15       30.06R
PINEY ISLAND   CLEAR    N/A N/A N/A NW17G23   30.04R
WILMINGTON     CLOUDY    55  46  71 NW12      30.07R


$$

NCZ011>013-027>030-043-044-078>080-089-090>093-098-082200-
COASTAL PLAIN

CITY           SKY/WX    TMP DP  RH WIND       PRES   REMARKS
AHOSKIE        MOCLDY    48  29  48 CALM      30.06R
CLINTON        CLOUDY    53  33  47 NW6       30.10R
ELIZABETHTOWN  CLOUDY    55  39  56 NW6       30.09R
GOLDSBORO      CLOUDY    51  26  36 NW10      30.07R
GREENVILLE     CLOUDY    50  28  43 NW5       30.08S
HAVELOCK       CLEAR     56  30  37 NW17      30.06R
KENANSVILLE    CLOUDY    52  25  35 NW8       30.10R
KINSTON        CLOUDY    52  27  37 NW3       30.10R
NEW BERN       MOCLDY    52  31  44 NW9       30.07R
RICHLANDS      CLOUDY    54  31  41 NW5       30.08R
ROCKY MOUNT    CLOUDY    50  27  40 W13       30.10R
WASHINGTON     CLOUDY    50  31  48 W10       30.07R
WHITEVILLE     PTSUNNY   56  46  69 NW3       30.08R

$$

AMZ130-135-150-152-154-156-158-170-250-252-270-ANZ085-086-088-633-658-670-082200-
MARINE OBSERVATIONS

STATION/POSITION TIME  TEMP    WIND        PRES    WAVE   SWELL
                       AIR SEA DIR/SP/G            HT/PER HT/PER
                 (UTC) (F)     (DEG/KT/KT) (MB)    (FT/S) (FT/S)
CHESAPEAKE LIGHT NOT AVBL
64 E VA BEACH    2050   51 59  310/ 21/ 25 1014.2    4/11   3/11
DUCK             2048   51 54  300/ 15/ 18 1015.8
2 E DUCK         NOT AVBL
OREGON INLET     2036   52 56  290/ 14/ 18 1015.8
13E OREGON INLT  NOT AVBL
HATTERAS CG      2048   55 60  300/ 17/ 20 1015.9
DIAMOND BUOY     2050   58 77  310/ 21/ 25 1015.5    5/10   3/10
CAPE LOOKOUT     2100   55     330/ 12/ 13 1016.8
BEAUFORT LAB     2048   56 55  350/ 11/ 14 1016.0
30 SE NEW RVR IN 2008   58 70  300/ 12/ 19 1016.6
30 SE NEW RVR IN NOT AVBL
27 SE WRIGHTSVLE 2008   60 68  290/ 14/ 19 1016.3
5 SE WRIGHTSVLE  2008   57 62  330/ 12/ 21 1016.1
225 S CAPE HAT   2050   73 74  290/ 10/ 14 1016.3    5/ 9   3/ 9
41 SE CHARLESTON 2050   61 74  310/  8/ 12 1018.0    3/ 4   2/ 4

$$




USA.gov is the U.S. government's official web portal to all federal, state and local government web resources and services.